Home   Weather   Saint-Étienne   Past weeks
Flag for France

Past Weather in Saint-Étienne, Auvergne-Rhône-Alpes, France — Yesterday and Last 2 Weeks

Now
61 °F

Passing clouds.


Feels Like: 61 °F
Forecast: 56 / 29 °F
Wind: 7 mph from Northeast

Location: St-Etienne Boutheon

Current Time: Apr 1, 2020 at 3:40:42 pm

Latest Report: Apr 1, 2020 at 3:00 pm


Visibility: N/A

Pressure: 29.98 "Hg (28.16 "Hg at 529m altitude)

Humidity: 42%

Dew Point: 37 °F

Location of Saint-ÉtienneLocation

Past Weather in Saint-Étienne — Graph

°F

Saint-Étienne Temperature Yesterday

Maximum temperature yesterday: 52 °F (at 5:00 pm)
Minimum temperature yesterday: 25 °F (at 7:30 am)
Average temperature yesterday: 37 °F

High & Low Weather Summary for the Past Weeks

 TemperatureHumidityPressure
High70 °F (Mar 19, 1:00 pm)100% (Mar 30, 3:30 am)30.42 "Hg (Mar 30, 3:30 am)
Low25 °F (Mar 31, 7:30 am)30% (Mar 26, 4:30 pm)29.86 "Hg (Mar 26, 1:00 am)
Average45 °F69%30.09 "Hg
* Reported Mar 17 1:00 pm — Apr 1 2:30 pm, Saint-Étienne. Weather by CustomWeather, © 2020

Note: Actual official high and low records may vary slightly from our data, if they occured in-between our weather recording intervals... More about our weather records

Saint-Étienne Weather History for the Previous 24 Hours

Scroll right to see more
 ConditionsComfort  
Time TempWeatherWind HumidityBarometerVisibility
2:30 pm
Wed, Apr 1
59 °FSunny.5 mph42%29.98 "Hg10 mi
2:00 pm59 °FPassing clouds.8 mph45%29.98 "HgN/A
1:30 pm57 °FPassing clouds.7 mph44%30.01 "HgN/A
1:00 pm55 °FPassing clouds.8 mph47%30.01 "HgN/A
12:30 pm54 °FSunny.10 mph47%30.04 "Hg10 mi
12:00 pm50 °FSunny.9 mph47%30.04 "Hg10 mi
11:30 am48 °FPassing clouds.8 mph46%30.07 "HgN/A
11:00 am46 °FPassing clouds.6 mph50%30.07 "HgN/A
10:30 am43 °FSunny.2 mph66%30.07 "Hg10 mi
10:00 am37 °FSunny.3 mph70%30.07 "Hg10 mi
9:30 am37 °FSunny.3 mph70%30.07 "Hg10 mi
9:00 am36 °FPassing clouds.5 mph70%30.07 "HgN/A
8:30 am30 °FSunny.3 mph86%30.09 "Hg10 mi
8:00 am25 °FSunny.2 mph86%30.07 "Hg10 mi
7:30 am25 °FSunny.2 mph93%30.07 "Hg10 mi
7:00 am25 °FClear.1 mph86%30.07 "Hg10 mi
6:30 am25 °FClear.5 mph86%30.07 "Hg10 mi
6:00 am27 °FClear.6 mph80%30.09 "Hg10 mi
5:30 am27 °FClear.3 mph86%30.09 "Hg10 mi
5:00 am25 °FClear.5 mph86%30.09 "Hg10 mi
4:30 am25 °FClear.1 mph86%30.09 "Hg10 mi
4:00 am25 °FClear.2 mph86%30.09 "Hg10 mi
3:30 am27 °FClear.2 mph86%30.09 "Hg10 mi
3:00 am27 °FClear.2 mph86%30.09 "Hg10 mi
2:30 am27 °FClear.1 mph86%30.09 "Hg10 mi
2:00 am28 °FClear.2 mph86%30.09 "Hg10 mi
1:30 am28 °FClear.2 mph86%30.09 "Hg10 mi
1:00 am28 °FClear.3 mph80%30.09 "Hg10 mi
12:30 am30 °FClear.3 mph80%30.12 "Hg10 mi
12:00 am30 °FClear.3 mph86%30.09 "Hg10 mi
11:30 pm
Tue, Mar 31
34 °FClear.No wind75%30.12 "Hg10 mi
11:00 pm36 °FClear.No wind70%30.12 "Hg10 mi
10:30 pm37 °FClear.2 mph65%30.09 "Hg10 mi
10:00 pm37 °FPassing clouds.6 mph65%30.09 "HgN/A
9:30 pm34 °FClear.2 mph70%30.09 "Hg10 mi
9:00 pm41 °FClear.1 mph57%30.09 "Hg10 mi
8:30 pm45 °FClear.2 mph46%30.09 "Hg10 mi
8:00 pm48 °FSunny.2 mph43%30.09 "Hg10 mi
7:30 pm50 °FSunny.2 mph37%30.09 "Hg10 mi
7:00 pm50 °FSunny.7 mph43%30.09 "Hg10 mi
6:30 pm50 °FSunny.8 mph40%30.09 "Hg10 mi
6:00 pm52 °FPassing clouds.9 mph41%30.09 "HgN/A
5:30 pm52 °FPassing clouds.8 mph47%30.09 "HgN/A
5:00 pm52 °FSunny.5 mph50%30.09 "Hg10 mi
4:30 pm50 °FPassing clouds.6 mph50%30.09 "HgN/A
3:00 pm48 °FSunny.6 mph58%30.12 "Hg10 mi
Weather by CustomWeather, © 2020

See weather overview

Advertising